Regional Weather Roundup
Issued by NWS

Home | Current Version | Previous Version | Graphics & Text | Print | Product List | Glossary On
Versions: 1 2 3 4 5 6 7 8 9 10 11 12 13 14 15 16 17 18 19 20 21 22 23 24 25 26 27 28 29 30 31 32 33 34 35 36 37 38 39 40 41 42 43 44 45 46 47 48 49 50
000
ASUS44 KMEG 310310
RWRTN
TENNESSEE HOURLY STATE WEATHER ROUNDUP
NATIONAL WEATHER SERVICE MEMPHIS TN
1000 PM CDT THU JUL 30 2015

TNZ002-004-019-021-049-052-054-088>092-310400-
WEST TENNESSEE

CITY           SKY/WX    TMP DP  RH WIND       PRES   REMARKS
MEMPHIS INTL   PTCLDY    81  63  54 N8        30.09R
NWS MEMPHIS      N/A     79 N/A N/A MISG        N/A
JACKSON        CLEAR     72  63  73 CALM      30.10R
DYERSBURG        N/A    N/A N/A N/A MISG        N/A
PARIS          CLEAR     66  64  94 CALM      30.12R
LEXINGTON      CLEAR     72  63  73 CALM      30.10R
$$

TNZ008-025-027-028-033-062-065-066-310400-
NORTH MIDDLE TENNESSEE

CITY           SKY/WX    TMP DP  RH WIND       PRES   REMARKS
NASHVILLE      CLEAR     77  62  59 N6        30.10R
CLARKSVILLE    CLEAR     70  64  81 CALM      30.10R
SMYRNA         CLEAR     75  64  68 N7        30.10R
CROSSVILLE     CLEAR     72  60  66 N5        30.13R
$$

TNZ061-075-076-078-094-096-097-310400-
SOUTH MIDDLE TENNESSEE

CITY           SKY/WX    TMP DP  RH WIND       PRES   REMARKS
FAYETTEVILLE   CLEAR     72  59  64 CALM      30.08R
TULLAHOMA      CLEAR     72  61  68 N6        30.10R
WINCHESTER     CLEAR     73  63  68 CALM      30.09R
MCMINNVILLE    CLEAR     72  64  78 N5        30.10R
COLUMBIA       CLEAR     73  63  68 CALM      30.08R
SHELBYVILLE    CLEAR     72  64  78 CALM      30.10R
$$

TNZ017-018-042-046-047-310400-
NORTHEAST TENNESSEE

CITY           SKY/WX    TMP DP  RH WIND       PRES   REMARKS
TRI CITIES     PTCLDY    72  62  71 CALM      30.08R
ELIZABETHTON   CLOUDY    75  63  64 CALM      30.08R
$$

TNZ012-013-036-069-073-074-310400-
CENTRAL EAST TENNESSEE

CITY           SKY/WX    TMP DP  RH WIND       PRES   REMARKS
KNOXVILLE      PTCLDY    77  63  61 N8        30.05R
OAK RIDGE      CLEAR     75  65  70 CALM      30.08R
GATLINBURG     MOCLDY    77  64  65 NW3       30.05R
MORRISTOWN     PTCLDY    75  64  69 N3        30.08R
$$

TNZ083-085-099-310400-
SOUTHEAST TENNESSEE

CITY           SKY/WX    TMP DP  RH WIND       PRES   REMARKS
CHATTANOOGA    PTCLDY    80  64  58 N13       30.04R
$$

SKY/WX REPORTED AS FAIR MEANS FEW OR NO CLOUDS BELOW
12 THOUSAND FEET.



USA.gov is the U.S. government's official web portal to all federal, state and local government web resources and services.